Regional Weather Roundup
Issued by NWS

Home | Current Version | Previous Version | Text Only | Print | Product List | Glossary On
Versions: 1 2 3 4 5 6 7 8 9 10 11 12 13 14 15 16 17 18 19 20 21 22 23 24 25 26 27 28 29 30 31 32 33 34 35 36 37 38 39 40 41 42 43 44 45 46 47 48 49 50
000
ASUS43 KOAX 210810
RWRNE

WEATHER ROUNDUP FOR NEBRASKA
NATIONAL WEATHER SERVICE OMAHA NE
300 AM CDT MON APR 21 2014

NOTES: SATELLITE DATA IS BEING USED TO AUGMENT CLOUD COVER ABOVE
       12000 FEET.
       "FAIR" INDICATES FEW OR NO CLOUDS BELOW 12,000 FEET WITH NO
       SIGNIFICANT WEATHER AND/OR OBSTRUCTIONS TO VISIBILITY.

  * THESE STATIONS DO NOT REPORT WEATHER SUCH AS RAIN...SNOW OR FOG.

NEZ001>004-019>022-054>056-210900-
NEBRASKA PANHANDLE

CITY           SKY/WX    TMP DP  RH WIND       PRES   REMARKS
SCOTTSBLUFF    PTCLDY    50  27  40 VRB5      30.20R
ALLIANCE       CLEAR     42  30  62 N8        30.16R
CHADRON        CLEAR     40  32  73 N5        30.19R
KIMBALL        PTCLDY    44  30  57 N8        30.19S
SIDNEY         MOCLDY    47  31  53 N13       30.17R
$$

NEZ057>060-069>072-079>082-210900-
SOUTHWEST NEBRASKA

CITY           SKY/WX    TMP DP  RH WIND       PRES   REMARKS
NORTH PLATTE   PTCLDY    55  38  52 N17       30.04R
IMPERIAL       CLEAR     55  38  52 N16       30.06R
LEXINGTON      CLOUDY    59  55  84 N9        30.00R
MCCOOK         PTCLDY    53  51  93 NW6       30.02R
OGALLALA       CLEAR     55  30  37 N21       30.07R
$$

NEZ005>010-023>029-035>040-094-210900-
NORTH CENTRAL NEBRASKA

CITY           SKY/WX    TMP DP  RH WIND       PRES   REMARKS
VALENTINE      PTCLDY    52  28  39 N10       30.09R
AINSWORTH      PTCLDY    55  32  42 N14       30.07R
BROKEN BOW     MOCLDY    55  52  89 NW12      30.00R
O`NEILL        CLOUDY    55  46  70 NW8       29.99R
ORD            CLOUDY    55  52  89 CALM      29.96F
THEDFORD       CLEAR     55  30  37 N17G24    30.08R
$$

NEZ041-046>049-061>064-073>077-083>087-210900-
SOUTH CENTRAL NEBRASKA

CITY           SKY/WX    TMP DP  RH WIND       PRES   REMARKS
GRAND ISLAND   CLOUDY    60  55  83 W9        29.98F
AURORA         RAIN      58  55  88 NW9       29.99F
HASTINGS       CLOUDY    60  53  77 N14       30.01R
HEBRON         LGT RAIN  59  56  88 CALM      29.96S
HOLDREGE       CLOUDY    56  53  91 N7        30.00R
KEARNEY *      CLOUDY    59  54  82 N9        30.03R
YORK           CLOUDY    57  55  94 W10       29.99R
$$

NEZ011>018-030>034-042>045-210900-
NORTHEAST NEBRASKA

CITY           SKY/WX    TMP DP  RH WIND       PRES   REMARKS
NORFOLK        CLOUDY    58  52  80 S10       29.87F
ALBION         DRIZZLE   65  46  49 W13G21    29.90F
BLAIR          CLOUDY    61  55  80 S7        29.94F
COLUMBUS *     CLOUDY    61  54  77 SW14      29.95F
FREMONT        CLOUDY    62  55  79 SW8       29.94R
TEKAMAH        CLOUDY    61  54  77 SW9       29.93F
$$

NEZ050>053-065>068-078-088>093-210900-
SOUTHEAST NEBRASKA

CITY           SKY/WX    TMP DP  RH WIND       PRES   REMARKS
LINCOLN        CLOUDY    61  55  81 CALM      29.95F
OMAHA EPPLEY   CLOUDY    63  57  81 SE7       29.94F
BEATRICE       CLOUDY    61  55  82 S6        29.95S
FALLS CITY     LGT RAIN  64  57  78 S12       29.95F
NEBRASKA CITY  MOCLDY    61  57  87 S8        29.95F
PLATTSMOUTH    CLOUDY    62  57  83 S6        29.94F
$$

NEZ044-045-051>053-067-210900-
OMAHA AREA

CITY           SKY/WX    TMP DP  RH WIND       PRES   REMARKS
OMAHA EPPLEY   CLOUDY    63  57  81 SE7       29.94F
BLAIR          CLOUDY    61  55  80 S7        29.94F
FREMONT        CLOUDY    62  55  79 SW8       29.94R
MILLARD        CLOUDY    63  56  76 CALM      29.93F
OFFUTT AFB     CLOUDY    59  59 100 E5        29.94F
PLATTSMOUTH    CLOUDY    62  57  83 S6        29.94F
WAHOO          FAIR      60  54  80 SW6       29.94S
$$



USA.gov is the U.S. government's official web portal to all federal, state and local government web resources and services.